Regional Weather Roundup
Issued by NWS

Home | Current Version | Previous Version | Text Only | Print | Product List | Glossary Off
Versions: 1 2 3 4 5 6 7 8 9 10 11 12 13 14 15 16 17 18 19 20 21 22 23 24 25 26 27 28 29 30 31 32 33 34 35 36 37 38 39 40 41 42 43 44 45 46 47 48 49 50

000
ASUS45 KPSR 072210
RWRAZ

ARIZONA HOURLY REGIONAL WEATHER ROUNDUP
NATIONAL WEATHER SERVICE PHOENIX AZ
300 PM MST TUE JUL 07 2015

NOTE: FAIR INDICATES FEW OR NO CLOUDS BELOW 12,000 FEET WITH NO
SIGNIFICANT WEATHER AND/OR OBSTRUCTIONS TO VISIBILITY.

AZZ001>003-036-072300-
NORTHWEST ARIZONA

CITY           SKY/WX    TMP DP  RH WIND       PRES   REMARKS
BULLHEAD CITY  MOSUNNY  108  48  13 SW12G17   29.71F HX 104
KINGMAN        MOSUNNY   93  43  17 W12G22    29.94F
$$

AZZ004>008-015-016-018-072300-
NORTH CENTRAL ARIZONA

CITY           SKY/WX    TMP DP  RH WIND       PRES   REMARKS
GRAND CANYON   MOSUNNY   78  43  28 NW13G23   30.18F
WILLIAMS       CLOUDY    68  54  60 S7        30.28F
PRESCOTT       PTSUNNY   79  56  45 SE13      30.09F
FLAGSTAFF      TSTM      60  53  77 SW13      30.26R
PAYSON         CLOUDY    75  48  38 W5G12     30.13F
PAGE           PTSUNNY   84  50  30 NW8       30.02F
$$

AZZ009>014-017-072300-
NORTHEAST ARIZONA

CITY           SKY/WX    TMP DP  RH WIND       PRES   REMARKS
WINSLOW        LGT RAIN  86  51  29 N12       30.05F
SAINT JOHNS    MOSUNNY   87  42  20 W15G23    30.09F
SHOW LOW       PTSUNNY   77  43  29 W6G16     30.18F
$$

AZZ023-072300-
GREATER PHOENIX AREA

CITY           SKY/WX    TMP DP  RH WIND       PRES   REMARKS
PHOENIX        MOSUNNY  105  53  17 N12G17    29.77F HX 103
BUCKEYE        SUNNY    104  48  15 S7        29.77F HX 100
GLENDALE       MOSUNNY  104  54  18 W5        29.79F HX 102
LUKE AFB       SUNNY    104  54  18 SW6       29.76F HX 102
DEER VALLEY    SUNNY    102  52  18 W10       29.79F
SCOTTSDALE     MOSUNNY  101  52  19 VRB6      29.81F
MESA-FALCON    MOSUNNY  106  54  17 S12       29.80F HX 104
MESA-GATEWAY   MOSUNNY  102  57  22 MISG      29.83F HX 101
CHANDLER       MOSUNNY  102  55  21 SW7       29.79F HX 101
$$

AZZ027-028-072300-
SOUTHWEST MARICOPA COUNTY AND PINAL COUNTY

CITY           SKY/WX    TMP DP  RH WIND       PRES   REMARKS
CASA GRANDE    MOSUNNY  100  55  22 CALM      29.80F
GILA BEND      MOSUNNY  107  46  12 VRB6      29.74F HX 102
$$

AZZ503-504-507>509-072300-
SOUTHEAST ARIZONA

CITY           SKY/WX    TMP DP  RH WIND       PRES   REMARKS
TUCSON         MOSUNNY   97  56  25 CALM      29.91F
DAVIS-MONTHAN  SUNNY     96  58  28 N6        29.89F
RYAN FIELD     SUNNY     99  55  23 NW8       29.90F
NOGALES        MOSUNNY   94  56  27 W17       30.01F
SIERRA VISTA   PTSUNNY   83  54  36 SE6       30.08F
DOUGLAS        PTSUNNY   86  59  39 W10       30.01F
SAFFORD        PTSUNNY   93  55  27 SW8       29.90F
$$

AZZ020-021-025-026-031-072300-
SOUTHWEST ARIZONA

CITY           SKY/WX    TMP DP  RH WIND       PRES   REMARKS
YUMA           MOSUNNY  106  47  13 S12G18    29.72F HX 102
$$

CAZ031-033-041-043-047-048-061-072300-
SOUTHERN CALIFORNIA

CITY           SKY/WX    TMP DP  RH WIND       PRES   REMARKS
DOWNTOWN L.A.  SUNNY     74  61  63 VRB3      29.91F
L.A. AIRPORT   MOSUNNY   70  62  76 W10       29.93F
SAN DIEGO      PTSUNNY   70  57  64 W12       29.94F
BURBANK        SUNNY     78  60  53 S10       29.91F
ONTARIO        MOSUNNY   84  57  39 W9G16     29.90F
RIVERSIDE      SUNNY     85  60  42 W10       29.89F
PALM SPRINGS   MOSUNNY  105  51  16 NW15G25   29.75F HX 102
EL CENTRO NAS  MOSUNNY  106  45  12 NE5       29.71F HX 101
IMPERIAL       MOSUNNY  107  46  13 SW5       29.69F HX 103
BLYTHE         SUNNY    107  51  15 S15       29.71F HX 104
NEEDLES        MOSUNNY  110  46  11 S13G22    29.73F HX 105
$$

NVZ020-UTZ003-072300-
SOUTHERN NEVADA-UTAH

CITY           SKY/WX    TMP DP  RH WIND       PRES   REMARKS
LAS VEGAS      PTSUNNY   99  48  17 VRB3      29.80F THUNDER
SALT LAKE CITY CLOUDY    83  52  34 W8        29.97F
$$

NMZ009-TXZ055-072300-
NEW MEXICO-WEST TEXAS

CITY           SKY/WX    TMP DP  RH WIND       PRES   REMARKS
ALBUQUERQUE    CLOUDY    79  54  41 VRB3      30.12F
EL PASO        MOSUNNY   93  56  28 VRB5      29.95F
$$


........................KEY........................
SKY/WX - SKY CONDITION/WEATHER
TMP    - TEMPERATURE IN FAHRENHEIT
DP     - DEW POINT IN FAHRENHEIT
RH     - RELATIVE HUMIDITY IN PERCENT
WIND   - DIRECTION AND SPEED IN MILES PER HOUR (MPH)
VRB    - VARIABLE WIND DIRECTION
PRES   - MEAN SEA LEVEL PRESSURE IN INCHES OF MERCURY
         F - FALLING PRESSURE   R - RISING PRESSURE
         S - STEADY PRESSURE
VSB    - VISIBILITY IN MILES
HX     - HEAT INDEX IN FAHRENHEIT
WCI    - WIND CHILL INDEX IN FAHRENHEIT
TC     - TEMPERATURE IN CELSIUS WHICH IS ALSO KNOWN AS
         TEMPERATURE IN CENTIGRADE
AFB    - AIR FORCE BASE
         LUKE AFB IS LUKE AIR FORCE BASE
         DAVIS-MONTHAN IS DAVIS-MONTHAN AIR FORCE BASE
NAS    - NAVAL AIR STATION
         EL CENTRO NAS IS EL CENTRO NAVAL AIR STATION
N/A    - NOT AVAILABLE




USA.gov is the U.S. government's official web portal to all federal, state and local government web resources and services.